Time,TemperatureF,DewpointF,PressureIn,WindDirection,WindDirectionDegrees,WindSpeedMPH,WindSpeedGustMPH,Humidity,HourlyPrecipIn,Conditions,Clouds,dailyrainin,SolarRadiationWatts/m^2,SoftwareType,DateUTC
2013-03-01 00:02:00,39.0,-5.0,-100.00,NNW,343,2.0,4.0,15,0.00,,,0.00,0.000000,,2013-03-01 07:02:00,
2013-03-01 00:11:00,39.0,-5.0,-100.00,NNW,343,2.0,4.0,15,0.00,,,0.00,0.000000,,2013-03-01 07:11:00,
2013-03-01 00:22:00,39.0,-5.0,-100.00,NNW,343,2.0,4.0,15,0.00,,,0.00,0.000000,,2013-03-01 07:22:00,
2013-03-01 00:52:00,39.0,-5.0,-100.00,NNW,334,1.0,7.0,15,0.00,,,0.00,0.000000,,2013-03-01 07:52:00,
2013-03-01 01:02:00,39.0,-5.0,-100.00,NNW,334,1.0,7.0,15,0.00,,,0.00,0.000000,,2013-03-01 08:02:00,
2013-03-01 01:12:00,39.0,-5.0,-100.00,NNW,334,1.0,7.0,15,0.00,,,0.00,0.000000,,2013-03-01 08:12:00,
2013-03-01 01:22:00,39.0,-5.0,-100.00,NNW,334,1.0,7.0,15,0.00,,,0.00,0.000000,,2013-03-01 08:22:00,
2013-03-01 01:53:00,37.0,-4.0,-100.00,NNW,342,4.0,9.0,17,0.00,,,0.00,0.000000,,2013-03-01 08:53:00,
2013-03-01 02:02:00,37.0,-4.0,-100.00,NNW,342,4.0,9.0,17,0.00,,,0.00,0.000000,,2013-03-01 09:02:00,
2013-03-01 02:12:00,37.0,-4.0,-100.00,NNW,342,4.0,9.0,17,0.00,,,0.00,0.000000,,2013-03-01 09:12:00,
2013-03-01 02:22:00,37.0,-4.0,-100.00,NNW,342,4.0,9.0,17,0.00,,,0.00,0.000000,,2013-03-01 09:22:00,
2013-03-01 02:52:00,38.0,2.0,-100.00,North,9,5.0,10.0,21,0.00,,,0.00,0.000000,,2013-03-01 09:52:00,
2013-03-01 03:02:00,38.0,2.0,-100.00,North,9,5.0,10.0,21,0.00,,,0.00,0.000000,,2013-03-01 10:02:00,
2013-03-01 03:11:00,38.0,2.0,-100.00,North,9,5.0,10.0,21,0.00,,,0.00,0.000000,,2013-03-01 10:11:00,
2013-03-01 03:22:00,38.0,2.0,-100.00,North,9,5.0,10.0,21,0.00,,,0.00,0.000000,,2013-03-01 10:22:00,
2013-03-01 03:53:00,35.0,-1.0,-100.00,SE,134,0.0,14.0,21,0.00,,,0.00,0.000000,,2013-03-01 10:53:00,
2013-03-01 04:01:00,35.0,-1.0,-100.00,SE,134,0.0,14.0,21,0.00,,,0.00,0.000000,,2013-03-01 11:01:00,
2013-03-01 04:11:00,35.0,-1.0,-100.00,SE,134,0.0,14.0,21,0.00,,,0.00,0.000000,,2013-03-01 11:11:00,
2013-03-01 04:22:00,35.0,-1.0,-100.00,SE,134,0.0,14.0,21,0.00,,,0.00,0.000000,,2013-03-01 11:22:00,
2013-03-01 04:52:00,36.0,-1.0,-100.00,NW,323,9.0,13.0,20,0.00,,,0.00,0.000000,,2013-03-01 11:52:00,
2013-03-01 05:02:00,36.0,-1.0,-100.00,NW,323,9.0,13.0,20,0.00,,,0.00,0.000000,,2013-03-01 12:02:00,
2013-03-01 05:11:00,36.0,-1.0,-100.00,NW,323,9.0,13.0,20,0.00,,,0.00,0.000000,,2013-03-01 12:11:00,
2013-03-01 05:21:00,36.0,-1.0,-100.00,NW,323,9.0,13.0,20,0.00,,,0.00,0.000000,,2013-03-01 12:21:00,
2013-03-01 05:52:00,37.0,-3.0,-100.00,NNW,327,2.0,20.0,18,0.00,,,0.00,0.000000,,2013-03-01 12:52:00,
2013-03-01 06:01:00,37.0,-3.0,-100.00,NNW,327,2.0,20.0,18,0.00,,,0.00,0.000000,,2013-03-01 13:01:00,
2013-03-01 06:11:00,37.0,-3.0,-100.00,NNW,327,2.0,20.0,18,0.00,,,0.00,0.000000,,2013-03-01 13:11:00,
2013-03-01 06:22:00,37.0,-3.0,-100.00,NNW,327,2.0,20.0,18,0.00,,,0.00,0.000000,,2013-03-01 13:22:00,
2013-03-01 06:52:00,35.0,-1.0,-100.00,West,277,2.0,8.0,21,0.00,,,0.00,0.000000,,2013-03-01 13:52:00,
2013-03-01 07:01:00,35.0,-1.0,-100.00,West,277,2.0,8.0,21,0.00,,,0.00,0.000000,,2013-03-01 14:01:00,
2013-03-01 07:11:00,35.0,-1.0,-100.00,West,277,2.0,8.0,21,0.00,,,0.00,0.000000,,2013-03-01 14:11:00,
2013-03-01 07:21:00,35.0,-1.0,-100.00,West,277,2.0,8.0,21,0.00,,,0.00,0.000000,,2013-03-01 14:21:00,
2013-03-01 07:52:00,37.0,3.0,-100.00,NE,36,0.0,6.0,23,0.00,,,0.00,13.000000,,2013-03-01 14:52:00,
2013-03-01 08:01:00,37.0,3.0,-100.00,NE,36,0.0,6.0,23,0.00,,,0.00,13.000000,,2013-03-01 15:01:00,
2013-03-01 08:11:00,37.0,3.0,-100.00,NE,36,0.0,6.0,23,0.00,,,0.00,13.000000,,2013-03-01 15:11:00,
2013-03-01 08:21:00,37.0,3.0,-100.00,NE,36,0.0,6.0,23,0.00,,,0.00,13.000000,,2013-03-01 15:21:00,
2013-03-01 08:52:00,44.0,3.0,-100.00,NW,319,2.0,7.0,18,0.00,,,-99.99,253.000000,,2013-03-01 15:52:00,
2013-03-01 09:01:00,44.0,3.0,-100.00,NW,319,2.0,7.0,18,0.00,,,-99.99,253.000000,,2013-03-01 16:01:00,
2013-03-01 09:11:00,44.0,3.0,-100.00,NW,319,2.0,7.0,18,0.00,,,-99.99,253.000000,,2013-03-01 16:11:00,
2013-03-01 09:21:00,44.0,3.0,-100.00,NW,319,2.0,7.0,18,0.00,,,-99.99,253.000000,,2013-03-01 16:21:00,
2013-03-01 09:52:00,48.0,4.0,-100.00,West,272,4.0,9.0,16,0.00,,,0.00,575.000000,,2013-03-01 16:52:00,
2013-03-01 10:01:00,48.0,4.0,-100.00,West,272,4.0,9.0,16,0.00,,,0.00,575.000000,,2013-03-01 17:01:00,
2013-03-01 10:11:00,48.0,4.0,-100.00,West,272,4.0,9.0,16,0.00,,,0.00,575.000000,,2013-03-01 17:11:00,
2013-03-01 10:21:00,48.0,4.0,-100.00,West,272,4.0,9.0,16,0.00,,,0.00,575.000000,,2013-03-01 17:21:00,
2013-03-01 10:52:00,51.0,5.0,-100.00,West,260,3.0,8.0,15,0.00,,,0.00,819.000000,,2013-03-01 17:52:00,
2013-03-01 11:01:00,51.0,5.0,-100.00,West,260,3.0,8.0,15,0.00,,,0.00,819.000000,,2013-03-01 18:01:00,
2013-03-01 11:12:00,51.0,5.0,-100.00,West,260,3.0,8.0,15,0.00,,,0.00,819.000000,,2013-03-01 18:12:00,
2013-03-01 11:22:00,51.0,5.0,-100.00,West,260,3.0,8.0,15,0.00,,,0.00,819.000000,,2013-03-01 18:22:00,
2013-03-01 11:52:00,52.0,4.0,-100.00,NW,311,4.0,9.0,14,0.00,,,0.00,979.000000,,2013-03-01 18:52:00,
2013-03-01 12:01:00,52.0,4.0,-100.00,NW,311,4.0,9.0,14,0.00,,,0.00,979.000000,,2013-03-01 19:01:00,
2013-03-01 12:11:00,52.0,4.0,-100.00,NW,311,4.0,9.0,14,0.00,,,0.00,979.000000,,2013-03-01 19:11:00,
2013-03-01 12:21:00,52.0,4.0,-100.00,NW,311,4.0,9.0,14,0.00,,,0.00,979.000000,,2013-03-01 19:21:00,
2013-03-01 12:52:00,54.0,7.0,-100.00,West,280,8.0,16.0,15,0.00,,,0.00,1062.000000,,2013-03-01 19:52:00,
2013-03-01 13:01:00,54.0,7.0,-100.00,West,280,8.0,16.0,15,0.00,,,0.00,1062.000000,,2013-03-01 20:01:00,
2013-03-01 13:11:00,54.0,7.0,-100.00,West,280,8.0,16.0,15,0.00,,,0.00,1062.000000,,2013-03-01 20:11:00,
2013-03-01 13:21:00,54.0,7.0,-100.00,West,280,8.0,16.0,15,0.00,,,0.00,1062.000000,,2013-03-01 20:21:00,
2013-03-01 13:52:00,55.0,7.0,-100.00,WNW,303,8.0,17.0,14,0.00,,,0.00,1056.000000,,2013-03-01 20:52:00,
2013-03-01 14:01:00,55.0,7.0,-100.00,WNW,303,8.0,17.0,14,0.00,,,0.00,1056.000000,,2013-03-01 21:01:00,
2013-03-01 14:11:00,55.0,7.0,-100.00,WNW,303,8.0,17.0,14,0.00,,,0.00,1056.000000,,2013-03-01 21:11:00,
2013-03-01 14:21:00,55.0,7.0,-100.00,WNW,303,8.0,17.0,14,0.00,,,0.00,1056.000000,,2013-03-01 21:21:00,
2013-03-01 14:52:00,58.0,11.0,-100.00,WNW,291,7.0,18.0,15,0.00,,,0.00,964.000000,,2013-03-01 21:52:00,
2013-03-01 15:01:00,58.0,11.0,-100.00,WNW,291,7.0,18.0,15,0.00,,,0.00,964.000000,,2013-03-01 22:01:00,
2013-03-01 15:11:00,58.0,11.0,-100.00,WNW,291,7.0,18.0,15,0.00,,,0.00,964.000000,,2013-03-01 22:11:00,
2013-03-01 15:21:00,58.0,11.0,-100.00,WNW,291,7.0,18.0,15,0.00,,,0.00,964.000000,,2013-03-01 22:21:00,
2013-03-01 15:52:00,59.0,10.0,-100.00,North,355,2.0,21.0,14,0.00,,,0.00,791.000000,,2013-03-01 22:52:00,
2013-03-01 16:01:00,59.0,10.0,-100.00,North,355,2.0,21.0,14,0.00,,,0.00,791.000000,,2013-03-01 23:01:00,
2013-03-01 16:11:00,59.0,10.0,-100.00,North,355,2.0,21.0,14,0.00,,,0.00,791.000000,,2013-03-01 23:11:00,
2013-03-01 16:21:00,59.0,10.0,-100.00,North,355,2.0,21.0,14,0.00,,,0.00,791.000000,,2013-03-01 23:21:00,
2013-03-01 16:52:00,57.0,10.0,-100.00,WNW,298,9.0,18.0,15,0.00,,,0.00,554.000000,,2013-03-01 23:52:00,
2013-03-01 17:02:00,57.0,10.0,-100.00,WNW,298,9.0,18.0,15,0.00,,,0.00,554.000000,,2013-03-02 00:02:00,
2013-03-01 17:11:00,57.0,10.0,-100.00,WNW,298,9.0,18.0,15,0.00,,,0.00,554.000000,,2013-03-02 00:11:00,
2013-03-01 17:21:00,57.0,10.0,-100.00,WNW,298,9.0,18.0,15,0.00,,,0.00,554.000000,,2013-03-02 00:21:00,
2013-03-01 17:52:00,56.0,9.0,-100.00,NW,325,6.0,18.0,15,0.00,,,0.00,283.000000,,2013-03-02 00:52:00,
2013-03-01 18:01:00,56.0,9.0,-100.00,NW,325,6.0,18.0,15,0.00,,,0.00,283.000000,,2013-03-02 01:01:00,
2013-03-01 18:11:00,56.0,9.0,-100.00,NW,325,6.0,18.0,15,0.00,,,0.00,283.000000,,2013-03-02 01:11:00,
2013-03-01 18:21:00,56.0,9.0,-100.00,NW,325,6.0,18.0,15,0.00,,,0.00,283.000000,,2013-03-02 01:21:00,
2013-03-01 18:52:00,52.0,6.0,-100.00,NNW,348,7.0,17.0,15,0.00,,,0.00,40.000000,,2013-03-02 01:52:00,
2013-03-01 19:01:00,52.0,6.0,-100.00,NNW,348,7.0,17.0,15,0.00,,,0.00,40.000000,,2013-03-02 02:01:00,
2013-03-01 19:11:00,52.0,6.0,-100.00,NNW,348,7.0,17.0,15,0.00,,,0.00,40.000000,,2013-03-02 02:11:00,
2013-03-01 19:22:00,52.0,6.0,-100.00,NNW,348,7.0,17.0,15,0.00,,,0.00,40.000000,,2013-03-02 02:22:00,
2013-03-01 19:52:00,48.0,5.0,-100.00,East,91,0.0,14.0,17,0.00,,,0.00,0.000000,,2013-03-02 02:52:00,
2013-03-01 20:02:00,48.0,5.0,-100.00,East,91,0.0,14.0,17,0.00,,,0.00,0.000000,,2013-03-02 03:02:00,
2013-03-01 20:11:00,48.0,5.0,-100.00,East,91,0.0,14.0,17,0.00,,,0.00,0.000000,,2013-03-02 03:11:00,
2013-03-01 20:21:00,48.0,5.0,-100.00,East,91,0.0,14.0,17,0.00,,,0.00,0.000000,,2013-03-02 03:21:00,
2013-03-01 20:52:00,46.0,7.0,-100.00,East,81,1.0,5.0,20,0.00,,,0.00,0.000000,,2013-03-02 03:52:00,
2013-03-01 21:01:00,46.0,7.0,-100.00,East,81,1.0,5.0,20,0.00,,,0.00,0.000000,,2013-03-02 04:01:00,
2013-03-01 21:11:00,46.0,7.0,-100.00,East,81,1.0,5.0,20,0.00,,,0.00,0.000000,,2013-03-02 04:11:00,
2013-03-01 21:21:00,46.0,7.0,-100.00,East,81,1.0,5.0,20,0.00,,,0.00,0.000000,,2013-03-02 04:21:00,
2013-03-01 21:52:00,46.0,9.0,-100.00,East,80,0.0,6.0,22,0.00,,,0.00,0.000000,,2013-03-02 04:52:00,
2013-03-01 22:02:00,46.0,9.0,-100.00,East,80,0.0,6.0,22,0.00,,,0.00,0.000000,,2013-03-02 05:02:00,
2013-03-01 22:12:00,46.0,9.0,-100.00,East,80,0.0,6.0,22,0.00,,,0.00,0.000000,,2013-03-02 05:12:00,
2013-03-01 22:22:00,46.0,9.0,-100.00,East,80,0.0,6.0,22,0.00,,,0.00,0.000000,,2013-03-02 05:22:00,
2013-03-01 22:52:00,46.0,7.0,-100.00,SE,126,6.0,10.0,20,0.00,,,0.00,0.000000,,2013-03-02 05:52:00,
2013-03-01 23:01:00,46.0,7.0,-100.00,SE,126,6.0,10.0,20,0.00,,,0.00,0.000000,,2013-03-02 06:01:00,
2013-03-01 23:11:00,46.0,7.0,-100.00,SE,126,6.0,10.0,20,0.00,,,0.00,0.000000,,2013-03-02 06:11:00,
2013-03-01 23:21:00,46.0,7.0,-100.00,SE,126,6.0,10.0,20,0.00,,,0.00,0.000000,,2013-03-02 06:21:00,
2013-03-01 23:52:00,44.0,9.0,-100.00,ENE,70,0.0,10.0,23,0.00,,,0.00,0.000000,,2013-03-02 06:52:00,